CAPE
0 0 0 0 0 0 0 0 0 0 0 0 0 0 0 0 0 0 0 0 0 0 0 332 891 596 377 155 68 39 235 77 34 0 103 71 109 177 130 170 156 59 25 106
0 0 0 0 0 0 0 0 0 0 0 0 0 0 0 0 0 0 0 0 0 0 0 29 489 653 729 521 165 414 487 668 230 305 585 442 478 479 276 212 92 10 28 126
0 0 0 0 0 0 0 0 0 0 0 0 0 0 0 0 0 0 0 0 0 0 0 8 812 504 933 913 278 211 471 925 683 877 663 704 784 644 425 316 127 132 107 188
0 0 0 0 0 0 0 7 0 0 0 0 0 0 0 0 0 0 0 0 0 0 0 0 431 309 781 762 266 64 39 418 1037 898 770 871 861 782 499 416 284 217 260 163
0 0 0 0 0 0 0 0 7 6 2 6 0 1 0 0 0 0 0 0 0 0 0 0 60 241 198 329 2 0 0 0 452 1149 899 900 943 794 543 389 272 278 110 28
0 0 0 0 0 0 0 0 0 1 0 1 0 0 0 0 0 0 0 0 0 0 0 0 128 389 111 33 1 1 0 4 0 901 1012 993 1004 917 604 475 309 198 5 0
0 0 0 0 0 0 0 0 0 0 0 0 3 0 0 0 0 0 0 0 0 0 0 44 86 197 94 38 0 0 0 0 80 986 896 1089 973 815 617 458 281 47 1 0
0 0 0 0 0 2 0 0 0 0 0 0 0 0 0 0 0 0 0 0 0 0 0 104 97 79 313 210 10 67 76 701 939 1048 732 791 723 624 396 306 105 4 0 0
0 0 0 0 0 0 2 0 1 0 0 1 0 0 0 0 0 0 0 0 0 0 48 108 502 249 84 224 849 1403 1598 1565 1241 1166 964 649 549 395 201 14 2 2 0 0
0 0 0 0 0 0 0 0 0 0 0 0 0 28 19 43 85 87 0 0 0 0 28 522 512 247 472 765 1477 1669 1657 1329 1051 1004 770 500 351 249 39 2 3 0 0 0
0 3 0 0 0 0 0 0 1 0 0 0 0 12 3 20 42 134 133 53 0 0 11 1792 1309 1257 1480 1705 1595 1655 1455 1126 904 897 561 275 100 12 3 3 4 1 0 0
0 0 0 0 0 0 0 0 3 0 0 0 0 0 0 0 2 156 107 131 0 0 0 1131 1837 1745 1818 1806 1425 1400 1257 945 797 325 136 22 2 3 4 5 4 0 0 0
0 0 0 0 0 0 0 0 3 1 1 0 0 0 0 2 23 139 164 415 39 0 4 765 1597 1138 947 1432 1263 1148 984 237 26 51 35 6 6 6 6 5 1 0 0 0
0 0 0 0 0 0 2 1 28 1 0 0 0 1 0 0 10 45 367 310 4 15 367 798 1241 815 569 399 257 126 2 4 4 5 6 6 5 6 6 4 2 0 0 0
0 0 0 0 0 0 1 0 1 0 0 1 1 0 11 0 0 1 164 745 445 611 573 780 526 292 49 3 4 0 2 1 6 7 6 8 7 6 3 2 1 0 0 0
0 0 0 0 0 21 1 0 16 44 6 11 9 10 4 0 0 0 25 721 732 590 427 311 77 27 3 3 3 5 4 0 0 3 2 7 5 6 3 2 0 0 0 0
0 6 0 0 0 0 0 2 20 30 1 3 7 35 18 0 0 2 1 18 94 355 208 73 5 3 5 0 0 2 6 1 2 4 6 6 6 3 2 0 0 0 0 0
7 3 0 0 0 0 12 0 0 3 0 0 19 1 5 0 1 3 4 1 15 55 12 15 1 1 0 2 0 0 0 5 0 7 6 4 2 2 0 0 0 0 0 0
0 3 0 1 1 0 7 0 1 4 2 0 2 5 0 2 1 0 3 0 0 1 1 2 5 4 3 0 1 0 0 5 4 4 3 2 0 0 0 0 0 0 0 0
0 2 3 1 0 0 0 0 0 0 0 1 2 0 0 0 14 1 2 2 0 0 0 4 4 2 5 5 3 1 4 4 5 2 1 0 0 0 0 0 0 0 0 0
0 0 2 4 1 1 0 0 0 0 1 1 4 0 0 0 2 1 1 0 3 3 1 2 2 5 3 3 2 3 3 4 2 1 0 0 0 0 0 0 0 0 0 0
1 0 0 0 7 0 3 0 0 0 0 0 4 0 0 1 2 1 1 0 0 2 1 1 0 1 2 1 2 1 1 0 0 0 0 0 0 0 0 0 0 0 0 0
0 0 1 5 0 22 30 4 0 0 0 0 2 0 0 0 2 1 0 1 0 2 2 2 1 1 0 1 0 0 1 0 0 0 0 0 0 0 0 0 0 0 0 0
0 0 2 0 2 10 25 18 18 0 0 0 0 0 0 0 1 1 1 1 1 1 4 2 2 2 1 0 0 0 0 0 0 0 0 0 0 0 0 0 0 0 0 0
0 0 0 0 0 0 16 5 4 0 0 0 0 0 0 0 0 2 1 1 1 1 1 2 2 1 0 0 0 0 0 0 0 0 0 0 0 0 0 0 0 0 0 0
0 0 0 1 2 0 0 0 1 3 0 0 0 0 0 0 0 2 2 2 3 2 2 0 1 0 0 0 0 0 0 0 0 0 0 0 0 0 0 0 0 0 0 0
CIN
-0 -0 -0 -0 -0 -0 -0 -0 -0 -0 -0 -0 -0 -0 -0 -0 -0 -0 -0 -0 -0 -0 -0 -60 -74 -35 -175 -254 -371 -432 -415 -450 -494 -0 -441 -451 -539 -505 -481 -385 -314 -343 -386 -274
-0 -0 -0 -0 -0 -0 -0 -0 -0 -0 -0 -0 -0 -0 -0 -0 -0 -0 -0 -0 -0 -0 -0 -35 -87 -39 -130 -167 -217 -231 -266 -236 -282 -288 -212 -246 -267 -305 -342 -334 -366 -396 -341 -296
-0 -0 -0 -0 -0 -0 -0 -0 -0 -0 -0 -0 -0 -0 -0 -0 -0 -0 -0 -0 -0 -0 -0 -48 -52 -17 -120 -120 -131 -194 -114 -89 -154 -107 -126 -124 -165 -254 -312 -315 -331 -286 -247 -237
-0 -0 -0 -0 -0 -0 -0 -44 -0 -0 -0 -0 -0 -0 -0 -0 -0 -0 -0 -0 -0 -0 -0 -0 -82 -145 -113 -116 -73 -252 -434 -119 -75 -86 -119 -149 -187 -193 -281 -270 -256 -180 -192 -268
-0 -0 -0 -0 -0 -0 -0 -0 -27 -18 -16 -19 -0 -6 -0 -0 -0 -0 -0 -0 -0 -0 -0 -0 -214 -90 -272 -272 -78 -0 -0 -0 -58 -87 -87 -153 -155 -215 -271 -241 -226 -162 -252 -419
-0 -0 -0 -0 -0 -0 -0 -0 -0 -11 -10 -0 -0 -0 -0 -0 -0 -0 -0 -0 -0 -0 -0 -0 -251 -138 -280 -389 -54 -408 -0 -33 -0 -57 -92 -89 -106 -153 -189 -182 -163 -183 -256 -0
-0 -0 -0 -0 -0 -0 -0 -0 -0 -0 -0 -0 -30 -0 -0 -0 -0 -0 -0 -0 -0 -0 -0 -200 -273 -186 -324 -388 -0 -0 -0 -0 -83 -44 -93 -70 -103 -113 -132 -142 -152 -276 -0 -0
-0 -0 -0 -0 -0 -7 -0 -0 -0 -0 -0 -0 -0 -0 -0 -0 -0 -0 -0 -0 -0 -0 -0 -241 -188 -238 -225 -331 -112 -520 -350 -30 -20 -71 -134 -109 -95 -112 -150 -158 -238 -38 -0 -0
-0 -0 -0 -0 -0 -0 -0 -0 -0 -0 -0 -0 -0 -0 -0 -0 -0 -0 -0 -0 -0 -0 -193 -228 -144 -174 -344 -401 -214 -52 -11 -5 -46 -58 -100 -148 -130 -149 -204 -85 -0 -0 -0 -0
-0 -0 -0 -0 -0 -0 -0 -0 -0 -0 -0 -0 -0 -62 -54 -119 -129 -175 -0 -0 -0 -0 -16 -174 -169 -212 -259 -222 -120 -80 -70 -90 -105 -65 -96 -150 -190 -238 -288 -0 -0 -0 -0 -0
-0 -2 -0 -0 -0 -0 -0 -0 -0 -0 -0 -0 -0 -38 -39 -133 -198 -183 -185 -161 -0 -0 -17 -42 -101 -111 -114 -105 -102 -92 -56 -102 -118 -75 -182 -253 -332 -362 -0 -0 -0 -0 -0 -0
-0 -1 -0 -0 -0 -0 -0 -0 -0 -0 -0 -0 -0 -2 -0 -0 -156 -254 -232 -157 -0 -0 -0 -36 -67 -75 -93 -108 -87 -64 -56 -91 -100 -226 -331 -426 -3 -0 -0 -0 -0 -0 -0 -0
-0 -0 -0 -0 -0 -0 -0 -0 -0 -0 -0 -1 -0 -0 -0 -107 -170 -327 -377 -168 -85 -0 -50 -69 -66 -97 -124 -81 -92 -50 -45 -141 -369 -409 -450 -0 -0 -0 -0 -0 -0 -0 -0 -0
-19 -0 -9 -0 -0 -0 -0 -0 -56 -0 -0 -0 -0 -0 -0 -0 -174 -387 -326 -198 -79 -139 -118 -98 -150 -199 -230 -227 -215 -221 -0 -0 -0 -0 -0 -0 -0 -0 -0 -0 -0 -0 -0 -0
-0 -0 -0 -0 -0 -3 -0 -0 -3 -0 -0 -0 -0 -0 -104 -0 -0 -0 -264 -200 -214 -193 -200 -218 -302 -354 -377 -0 -22 -0 -0 -0 -0 -0 -0 -0 -0 -0 -0 -0 -0 -0 -0 -0
-0 -0 -0 -0 -0 -5 -0 -0 -0 -17 -0 -0 -0 -0 -0 -0 -0 -0 -317 -118 -135 -183 -227 -314 -469 -482 -0 -0 -0 -0 -0 -0 -0 -0 -0 -0 -0 -0 -0 -0 -0 -0 -0 -0
-6 -3 -0 -0 -0 -0 -0 -0 -36 -26 -0 -4 -0 -0 -5 -0 -0 -0 -5 -200 -228 -220 -286 -437 -353 -0 -0 -0 -0 -0 -0 -0 -0 -0 -0 -0 -0 -0 -0 -0 -0 -0 -0 -0
-6 -4 -0 -0 -0 -0 -5 -0 -0 -1 -0 -0 -55 -2 -16 -0 -0 -0 -0 -34 -160 -261 -247 -323 -0 -0 -0 -0 -0 -0 -0 -0 -0 -0 -0 -0 -0 -0 -0 -0 -0 -0 -0 -0
-0 -5 -1 -0 -0 -0 -5 -0 -0 -0 -0 -0 -0 -79 -0 -8 -0 -0 -0 -0 -0 -0 -0 -0 -0 -0 -0 -0 -0 -0 -0 -0 -0 -0 -0 -0 -0 -0 -0 -0 -0 -0 -0 -0
-0 -22 -6 -2 -0 -0 -0 -0 -0 -0 -0 -0 -0 -0 -0 -0 -55 -28 -0 -0 -0 -0 -0 -0 -0 -0 -0 -0 -0 -0 -0 -0 -0 -0 -0 -0 -0 -0 -0 -0 -0 -0 -0 -0
-0 -0 -12 -6 -3 -7 -0 -0 -0 -0 -0 -1 -0 -0 -0 -0 -0 -0 -0 -0 -0 -0 -0 -0 -0 -0 -0 -0 -0 -0 -0 -0 -0 -0 -0 -0 -0 -0 -0 -0 -0 -0 -0 -0
-1 -0 -0 -0 -4 -0 -25 -0 -0 -0 -0 -1 -4 -0 -0 -0 -0 -0 -0 -0 -0 -0 -0 -0 -0 -0 -0 -0 -0 -0 -0 -0 -0 -0 -0 -0 -0 -0 -0 -0 -0 -0 -0 -0
-0 -0 -3 -1 -5 -20 -12 -20 -0 -0 -0 -0 -5 -0 -0 -0 -0 -0 -0 -0 -0 -0 -0 -0 -0 -0 -0 -0 -0 -0 -0 -0 -0 -0 -0 -0 -0 -0 -0 -0 -0 -0 -0 -0
-0 -0 -3 -0 -3 -10 -10 -8 -8 -0 -0 -0 -32 -0 -0 -0 -0 -0 -0 -0 -0 -0 -0 -0 -0 -0 -0 -0 -0 -0 -0 -0 -0 -0 -0 -0 -0 -0 -0 -0 -0 -0 -0 -0
-0 -0 -0 -0 -0 -0 -17 -13 -19 -0 -0 -0 -0 -0 -0 -0 -0 -0 -0 -0 -0 -0 -0 -0 -0 -0 -0 -0 -0 -0 -0 -0 -0 -0 -0 -0 -0 -0 -0 -0 -0 -0 -0 -0
-0 -0 -0 -4 -15 -0 -0 -0 -7 -42 -0 -0 -0 -0 -0 -0 -0 -0 -0 -0 -0 -0 -0 -0 -0 -0 -0 -0 -0 -0 -0 -0 -0 -0 -0 -0 -0 -0 -0 -0 -0 -0 -0 -0
Wind_Speed
21 17 11 10 9 13 25 26 18 27 30 33 44 50 52 47 47 50 47 51 46 44 39 24 27 33 26 21 24 25 23 21 21 17 17 15 12 10 9 6 5 5 2 2
20 10 9 12 12 18 18 26 21 31 34 33 45 52 51 49 52 51 51 53 48 43 38 31 26 31 17 21 21 24 25 24 23 21 17 16 14 9 9 9 6 4 2 1
11 12 9 13 13 5 6 10 14 14 33 27 44 53 52 51 50 51 52 53 51 43 40 31 26 36 24 21 23 23 26 27 24 23 19 17 15 6 6 5 6 4 4 2
13 10 5 7 9 3 10 7 7 9 10 30 27 55 48 45 52 51 51 51 53 44 38 35 29 30 23 23 24 25 31 32 28 21 20 20 17 11 14 6 5 4 3 2
11 12 6 5 2 8 5 4 5 7 9 13 39 38 43 41 48 51 51 50 52 45 40 36 35 31 29 25 29 40 40 40 43 25 21 22 19 7 6 4 5 4 3 4
10 4 10 11 9 6 11 6 6 10 9 8 15 32 37 43 46 44 45 46 50 44 40 35 33 33 31 23 26 23 33 49 46 40 20 17 12 10 7 5 4 1 4 5
11 14 19 19 19 15 11 10 9 13 15 6 7 28 33 29 36 39 41 42 47 42 41 33 33 37 29 26 21 16 20 17 45 41 19 15 13 11 9 6 4 2 5 5
22 6 29 10 14 11 19 17 17 14 13 1 13 22 31 27 36 38 40 38 43 39 39 34 34 36 27 24 20 17 23 39 20 19 16 13 12 10 8 5 4 3 4 5
23 11 6 15 13 13 15 9 16 13 12 6 14 19 28 30 32 34 39 39 42 41 37 37 34 33 28 22 22 22 22 18 19 18 16 15 13 11 8 5 3 2 2 5
20 5 1 28 18 20 15 16 13 20 10 9 10 15 20 19 26 29 33 40 42 40 31 36 36 35 29 23 21 22 21 22 22 19 19 16 13 10 8 7 4 1 3 6
16 9 22 13 11 9 15 12 18 6 11 15 9 17 13 17 21 27 31 37 42 42 28 28 31 36 32 25 24 25 25 23 23 22 20 17 13 10 9 6 5 3 6 8
18 14 13 14 3 23 19 12 12 10 2 0 8 15 19 19 21 24 30 35 42 41 32 29 27 26 33 27 23 24 26 23 23 21 19 17 14 12 9 6 5 4 7 9
17 16 17 17 18 7 12 9 2 7 13 9 9 14 18 18 19 19 24 33 44 39 29 28 29 32 31 30 25 24 23 22 21 21 20 17 13 11 9 5 4 4 8 10
18 16 18 14 19 17 9 14 7 14 15 5 3 14 16 16 16 20 23 26 42 34 31 31 29 27 27 24 19 17 18 19 23 22 21 18 14 10 6 5 3 7 9 11
19 13 20 14 24 24 29 27 33 31 13 19 13 10 13 14 16 16 15 8 9 20 25 27 26 26 21 19 17 13 15 15 18 21 21 17 13 11 9 4 6 9 11 12
20 23 31 26 23 23 22 26 21 5 9 14 17 12 15 14 16 13 10 5 7 14 18 21 22 21 20 16 14 11 8 8 7 22 10 20 15 8 7 8 10 11 12 14
17 27 28 23 28 21 20 16 4 7 18 6 16 6 11 17 13 8 8 4 5 9 16 19 18 15 17 14 11 11 10 8 8 7 12 9 10 9 8 12 12 11 13 14
9 24 17 25 25 15 16 27 24 8 13 21 14 18 10 7 8 10 5 5 1 6 12 12 12 8 10 11 7 5 5 7 7 10 10 9 11 16 14 11 11 12 13 15
22 25 24 21 21 19 22 29 28 6 8 24 15 16 11 9 14 12 11 8 5 6 9 15 11 7 7 4 7 8 6 9 12 12 11 14 20 17 13 12 12 13 15 16
27 19 20 22 21 19 26 30 24 14 14 29 28 23 22 19 13 12 14 10 6 6 4 5 7 9 4 4 7 11 11 11 15 11 16 16 13 13 13 14 14 14 15 16
21 21 21 22 20 18 21 25 17 18 23 25 30 27 27 22 19 16 14 13 7 11 7 4 3 5 4 6 8 12 17 16 11 11 9 11 11 13 14 13 14 15 15 16
13 20 22 21 20 20 27 19 21 20 18 26 26 20 21 20 18 17 15 12 11 11 2 0 6 6 6 11 14 13 11 11 12 12 13 13 12 12 13 14 14 15 15 16
11 13 22 20 21 19 20 21 17 10 26 27 25 17 17 19 17 16 13 10 9 9 10 8 8 6 5 6 9 11 9 12 15 15 12 11 12 12 12 13 14 14 15 15
10 7 8 28 18 22 21 19 18 23 27 26 21 14 16 17 15 13 11 9 6 4 6 6 7 8 4 6 7 11 11 12 13 12 10 9 10 11 12 13 13 13 13 15
3 3 5 20 28 25 18 20 19 22 26 23 18 15 16 15 13 12 10 8 6 4 3 0 2 3 4 6 7 10 10 11 10 9 8 9 10 12 12 12 13 14 14 16
6 9 3 5 17 25 27 23 18 22 23 20 14 16 16 15 12 10 10 9 6 4 2 1 1 2 4 3 4 5 5 7 9 9 9 10 11 12 12 14 15 16 16 17
Wind_Direction
5 360 346 321 307 314 318 312 289 310 313 308 282 272 265 265 261 253 248 241 244 248 255 249 232 229 227 217 209 205 202 206 208 204 212 216 215 218 223 201 192 180 246 343
0 335 326 334 322 329 326 310 270 315 301 301 282 271 266 261 255 251 246 239 237 243 251 252 242 233 221 231 220 219 213 214 214 216 217 219 221 228 236 244 248 208 214 26
354 340 328 6 4 313 285 277 266 287 311 307 285 271 266 256 252 249 245 238 234 237 245 248 221 226 205 231 225 227 232 222 217 221 221 222 228 220 246 236 236 142 128 344
3 4 345 291 269 342 264 291 275 272 310 300 305 266 264 253 245 245 243 237 231 234 241 244 235 226 223 212 224 238 241 242 223 213 218 218 226 223 247 226 225 113 87 331
351 279 344 270 319 26 311 295 289 295 294 303 278 274 259 244 240 237 237 237 230 232 238 241 238 230 230 227 226 239 238 239 234 220 221 221 223 218 159 153 140 112 2 350
302 303 29 28 27 39 24 21 2 4 349 298 245 254 247 230 229 234 236 235 229 230 235 239 235 234 232 229 214 221 241 260 239 216 220 216 204 207 191 174 172 256 305 322
16 43 26 32 26 38 47 19 6 15 29 25 132 196 218 226 231 236 237 236 229 227 230 234 228 230 228 229 225 217 222 223 202 212 216 210 203 192 183 189 202 200 284 315
31 329 358 19 36 29 21 41 33 23 37 155 185 194 204 227 226 231 234 240 233 228 228 228 226 224 225 226 217 174 160 174 190 203 208 208 200 193 202 212 208 247 289 328
28 41 9 274 289 40 48 66 51 41 57 120 163 199 233 231 230 234 234 233 231 229 233 233 223 223 221 217 212 200 216 197 211 209 206 209 215 216 217 215 201 213 334 360
35 337 114 310 41 41 48 45 42 44 56 109 157 191 229 256 253 253 241 230 228 230 236 229 224 225 223 218 215 217 206 209 216 211 215 214 209 207 197 194 193 205 26 36
35 58 283 277 75 25 41 45 36 80 73 84 124 134 265 269 263 252 245 231 228 227 230 221 221 226 227 221 222 223 223 219 213 214 215 212 214 203 189 183 204 119 58 33
45 341 281 270 190 49 54 51 47 65 42 50 112 161 305 275 274 269 246 234 225 223 225 225 220 216 221 222 220 223 224 217 212 207 206 205 202 196 192 189 113 83 53 33
40 43 300 296 13 36 46 351 35 71 44 281 283 176 271 284 285 270 249 236 221 226 225 225 221 220 221 229 232 231 226 215 204 197 197 198 198 193 179 152 102 58 52 36
37 46 16 260 275 282 11 322 64 69 61 338 200 240 267 298 288 278 263 241 221 226 226 223 223 222 221 224 222 224 226 217 198 196 191 186 179 172 155 122 90 52 39 34
29 36 16 274 279 324 339 338 22 58 71 53 68 280 305 313 296 274 280 260 217 223 220 217 218 222 216 218 223 216 215 225 244 197 195 184 174 163 123 121 65 58 45 32
25 7 323 304 323 346 342 7 28 34 21 66 336 342 322 317 325 317 326 273 233 218 211 208 217 221 215 215 221 219 217 214 186 233 195 170 169 139 122 92 78 64 43 32
22 337 316 304 305 305 290 294 296 312 333 8 353 272 289 338 277 285 337 317 231 205 209 210 217 220 212 213 219 241 244 219 176 208 194 132 123 117 103 90 80 53 46 38
244 288 18 295 309 262 326 336 306 280 325 336 334 337 259 333 263 328 295 22 288 224 216 222 222 203 201 213 182 90 161 174 128 177 176 131 120 102 95 82 70 59 47 39
9 313 327 303 300 295 322 319 305 340 71 335 319 318 304 135 274 314 306 281 308 326 262 247 245 230 236 225 223 199 151 168 168 140 127 106 103 99 87 74 71 62 60 47
348 2 342 332 299 287 315 314 297 30 35 331 328 319 318 55 286 289 321 291 349 312 276 279 277 248 246 181 185 134 173 137 115 120 103 98 87 85 84 79 77 61 54 48
10 332 329 325 304 334 307 311 302 350 312 300 334 352 358 7 41 331 323 352 356 20 9 264 226 69 133 171 147 123 141 119 126 110 98 86 81 82 81 75 65 63 55 50
26 359 319 323 319 311 346 328 347 293 307 302 313 21 12 18 12 342 356 7 19 32 330 86 204 212 183 184 157 141 121 121 107 98 91 87 82 77 78 74 69 63 57 50
35 17 324 323 319 348 3 4 31 52 307 316 321 16 19 12 15 14 10 9 31 42 64 65 72 77 82 172 138 122 118 100 96 94 90 85 80 71 65 66 64 58 58 48
32 36 12 306 338 335 341 356 8 360 334 320 345 8 353 358 350 356 11 19 12 10 54 73 77 81 113 99 101 100 101 98 96 93 85 75 68 61 52 43 46 48 64 55
201 14 20 286 304 318 340 338 351 353 340 343 0 337 332 330 340 326 335 347 2 351 302 7 86 102 123 112 103 100 102 102 98 89 79 69 63 59 48 36 34 56 58 66
185 188 72 31 337 311 311 321 341 339 348 338 357 322 314 319 324 320 323 308 310 310 292 269 230 171 188 174 125 128 116 106 101 91 81 72 70 66 63 60 55 38 50 63